McConnell AFB, KS

3:58 AM CST on December 13, 2019 (GMT -0600)
McConnell Air Force Base

Weather History for KIAB - November, 2019

Change the Weather History Date:

Thursday, November 14, 2019

  Actual Average Record
Temperature  
Mean Temperature 42 °F -  
Max Temperature 52 °F 55 °F 71 °F (1999)
Min Temperature 32 °F 35 °F 18 °F (2014)
Degree Days  
Heating Degree Days 23    
Moisture  
Dew Point 25 °F    
Average Humidity 55    
Maximum Humidity 78    
Minimum Humidity 34    
Precipitation  
Precipitation 0.00 in - - ()
Sea Level Pressure  
Sea Level Pressure 30.36 in    
Wind  
Wind Speed 7 mph ()    
Max Wind Speed 16 mph    
Max Gust Speed 21 mph    
Visibility 9.7 miles    
Events      
Averages and records for this station are not official NWS values.
T = Trace of Precipitation, MM = Missing Value Source: Averaged Metar Reports

Daily Weather History Graph

Daily Weather History Graph

Search for Another Location

Airport or City:

Astronomy

Nov. 14, 2019 Rise Set
Actual Time 7:07 AM CST 5:18 PM CST
Civil Twilight 6:39 AM CST 5:46 PM CST
Nautical Twilight 6:08 AM CST 6:18 PM CST
Astronomical Twilight 5:37 AM CST 6:49 PM CST
Moon 7:07 PM CST (11/14) 9:03 AM CST (11/14)
Length of Visible Light 11h 06m
Length of Day
10h 11m
Waning Gibbous, 95% of the Moon is Illuminated
Nov 14
Waning Gibbous
Nov 19
Last Quarter
Nov 26
New
Dec 4
First Quarter
Dec 11
Full

Hourly Weather History & Observations

Time (CST) Temp. Windchill Dew Point Humidity Pressure Visibility Wind Dir Wind Speed Gust Speed Precip Events Conditions
12:56 AM 35.1 °F 31.0 °F 19.6 °F 53% 30.21 in 10.0 mi North 4.6 mph - N/A   Clear
1:56 AM 33.8 °F 27.0 °F 19.4 °F 56% 30.23 in 10.0 mi NNW 8.1 mph - N/A   Clear
2:56 AM 34.3 °F 27.7 °F 20.3 °F 57% 30.25 in 10.0 mi North 8.1 mph - N/A   Clear
3:56 AM 32.4 °F 26.0 °F 20.5 °F 62% 30.26 in 10.0 mi North 6.9 mph - N/A   Partly Cloudy
4:56 AM 32.7 °F 25.0 °F 21.2 °F 63% 30.29 in 10.0 mi WNW 9.2 mph - N/A   Mostly Cloudy
5:56 AM 35.6 °F 27.5 °F 26.4 °F 69% 30.32 in 10.0 mi NNW 11.5 mph - N/A   Overcast
6:56 AM 34.7 °F 27.5 °F 27.3 °F 74% 30.34 in 10.0 mi NNW 9.2 mph - N/A   Scattered Clouds
7:56 AM 33.8 °F 27.0 °F 27.7 °F 78% 30.37 in 10.0 mi North 8.1 mph - N/A   Clear
8:56 AM 40.1 °F 34.1 °F 29.7 °F 66% 30.39 in 10.0 mi NNE 9.2 mph - N/A   Clear
9:56 AM 43.7 °F 36.9 °F 29.8 °F 58% 30.40 in 10.0 mi NNE 13.8 mph - N/A   Clear
10:56 AM 46.4 °F 40.7 °F 28.2 °F 49% 30.41 in 10.0 mi North 12.7 mph - N/A   Clear
11:34 AM 48.2 °F - 28.4 °F 46% 30.41 in 10.0 mi NNW 16.1 mph 20.7 mph N/A   Clear
11:56 AM 48.6 °F - 27.7 °F 44% 30.40 in 10.0 mi NNE 11.5 mph - N/A   Clear
2:56 PM 52.0 °F - 24.4 °F 34% 30.36 in 10.0 mi NNW 9.2 mph - N/A   Clear
3:56 PM 51.1 °F - 25.0 °F 36% 30.36 in 10.0 mi North 8.1 mph - N/A   Clear
4:56 PM 48.4 °F - 24.6 °F 39% 30.38 in 10.0 mi North 6.9 mph - N/A   Clear
5:56 PM 45.9 °F 44.6 °F 24.1 °F 42% 30.38 in 10.0 mi North 3.5 mph - N/A   Clear
6:56 PM 41.4 °F - 23.7 °F 50% 30.41 in 4.0 mi Calm Calm - N/A   Haze
7:56 PM 39.2 °F - 23.0 °F 52% 30.42 in 10.0 mi Calm Calm - N/A   Clear
8:56 PM 38.7 °F 36.3 °F 23.9 °F 55% 30.42 in 10.0 mi ESE 3.5 mph - N/A   Clear
9:56 PM 39.0 °F - 24.3 °F 55% 30.43 in 10.0 mi Calm Calm - N/A   Clear
10:56 PM 33.8 °F 30.8 °F 22.5 °F 63% 30.43 in 10.0 mi SSE 3.5 mph - N/A   Clear
11:56 PM 33.6 °F 30.6 °F 23.5 °F 67% 30.43 in 10.0 mi SSE 3.5 mph - N/A   Clear